Flag for Israel Weather past 2 weeks in Jerusalem, Israel

Now
55 °F

Clear.


Feels Like: 55 °F
Forecast: 44 / 52 °F
Wind: 2 mph from North

Location: Ben Gurion International Airport

Current Time: Dec 21, 2014 at 10:28:50 PM

Latest Report: Dec 21, 2014 at 9:50 PM


Visibility: 10 mi

Pressure: 30.15 "Hg

Humidity: 82%

Dew point: 50 °F

Location of JerusalemLocation

Historic Weather in Jerusalem — Graph

°F

Jerusalem temperature yesterday

Maximum temperature yesterday: 70 °F (at 11:20 AM)
Minimum temperature yesterday: 54 °F (at 5:20 AM)
Average temperature yesterday: 60 °F

Past Weeks' High & Low Weather Summary

 TemperatureHumidityPressure
High79 °F (Dec 11, 12:50 PM)94% (Dec 8, 3:50 AM)30.24 "Hg (Dec 8, 3:50 AM)
Low48 °F (Dec 16, 6:20 AM)35% (Dec 13, 11:50 AM)29.77 "Hg (Dec 9, 1:50 AM)
Average62 °F72%30.07 "Hg
* Reported Dec 6 9:20 PM — Dec 21 9:20 PM, Jerusalem, Weather by CustomWeather, © 2014

Note: Actual official high and low records may vary slightly from our data, if they occured in-between our weather recording intervals... More about our weather records

Advertising

Jerusalem weather history for previous 24 hours

 ConditionsComfort  
Time TempWeatherWind HumidityBarometerVisibility
9:20 PM
Dec 21
55 °FClear.5 mph82%30.15 "Hg10 mi
8:50 PM57 °FClear.5 mph82%30.15 "Hg10 mi
8:20 PM57 °FClear.5 mph82%30.15 "Hg10 mi
7:50 PM57 °FClear.5 mph82%30.15 "Hg10 mi
7:20 PM57 °FClear.5 mph82%30.15 "Hg10 mi
6:50 PM59 °FClear.5 mph77%30.15 "Hg10 mi
6:20 PM59 °FClear.3 mph77%30.15 "Hg10 mi
5:50 PM59 °FClear.3 mph72%30.12 "Hg10 mi
5:20 PM61 °FPassing clouds.3 mph68%30.12 "HgN/A
4:50 PM63 °FPassing clouds.3 mph68%30.12 "HgN/A
4:20 PM63 °FPassing clouds.6 mph68%30.12 "HgN/A
3:50 PM64 °FPassing clouds.6 mph64%30.12 "HgN/A
3:20 PM64 °FPassing clouds.7 mph64%30.12 "HgN/A
2:50 PM64 °FPassing clouds.6 mph68%30.12 "HgN/A
2:20 PM64 °FPassing clouds.8 mph64%30.12 "HgN/A
1:20 PM68 °FPassing clouds.3 mph64%30.09 "HgN/A
12:50 PM64 °FPassing clouds.1 mph73%30.09 "HgN/A
12:20 PM61 °FLight rain. Scattered clouds.5 mph77%30.12 "HgN/A
11:50 AM68 °FScattered clouds.3 mph56%30.12 "HgN/A
11:20 AM66 °FScattered clouds.6 mph60%30.12 "HgN/A
10:50 AM66 °FScattered clouds.3 mph64%30.15 "HgN/A
10:20 AM64 °FScattered clouds.3 mph68%30.15 "HgN/A
9:50 AM64 °FPassing clouds.6 mph68%30.15 "HgN/A
9:20 AM63 °FPassing clouds.1 mph77%30.15 "HgN/A
8:50 AM57 °FPassing clouds.3 mph88%30.15 "HgN/A
8:20 AM55 °FPassing clouds.2 mph88%30.15 "HgN/A
7:50 AM55 °FSunny.1 mph94%30.12 "Hg10 mi
7:20 AM54 °FSunny.1 mph88%30.12 "Hg10 mi
6:50 AM52 °FSunny.2 mph94%30.12 "Hg10 mi
6:20 AM52 °FClear.3 mph94%30.12 "Hg10 mi
5:50 AM52 °FClear.3 mph94%30.12 "Hg10 mi
5:20 AM54 °FClear.3 mph88%30.12 "Hg10 mi
4:50 AM54 °FClear.5 mph94%30.09 "Hg10 mi
4:20 AM54 °FClear.6 mph94%30.09 "Hg10 mi
3:50 AM55 °FClear.5 mph88%30.09 "Hg10 mi
3:20 AM55 °FClear.5 mph94%30.12 "Hg10 mi
2:20 AM57 °FPassing clouds.2 mph88%30.12 "HgN/A
1:50 AM55 °FRain. Passing clouds.3 mph94%30.12 "HgN/A
1:20 AM55 °FClear.5 mph94%30.12 "Hg10 mi
12:50 AM55 °FClear.2 mph94%30.12 "Hg10 mi
12:20 AM57 °FClear.6 mph88%30.12 "Hg10 mi
11:20 PM
Dec 20
57 °FPassing clouds.5 mph88%30.12 "HgN/A
10:50 PM57 °FRain. Passing clouds.7 mph88%30.12 "Hg6 mi
10:20 PM57 °FPassing clouds.6 mph88%30.12 "HgN/A
Weather by CustomWeather, © 2014

See weather overviewHow to use our weather pages